Downstream station:
SHEF ID: ENWK1 CROOKED C NR ENGLEWOOD, KS
STATION TYPE:
Regulating: Stage = 6.50, Flow = 243
PRECIP STAGE RIV-FLOW BAT-LOAD
in ft cfs volt
Ccp-Rev Ccp-Rev Ccp-Rev Ccp-Rev
(US/Central)
02/05 00:00 0.00 2.67 7 12.89
02/05 01:00 0.00 2.69 7 12.83
02/05 02:00 0.00 2.72 8 12.83
02/05 03:00 0.00 2.74 8 12.77
02/05 04:00 0.00 2.76 8 12.77
02/05 05:00 0.00 2.78 9 12.71
02/05 06:00 0.00 2.79 9 12.71
02/05 07:00 0.00 2.80 9 12.65
02/05 08:00 0.00 2.80 9 12.65
02/05 09:00 0.00 2.81 9 14.30
02/05 10:00 0.00 2.82 9 14.76
02/05 11:00 0.00 2.50 4 14.71
02/05 12:00 0.00 2.41 3 14.59
02/05 13:00 0.00 2.38 3 14.47
02/05 14:00 0.00 2.37 3 14.41
02/05 15:00 0.00 2.37 3 14.41
02/05 16:00 0.00 2.37 3 14.35
02/05 17:00 0.00 2.38 3 14.12
02/05 18:00 0.00 2.39 3 14.06
02/05 19:00 0.00 2.41 3 13.48
02/05 20:00 0.00 2.42 3 13.07
02/05 21:00 0.00 2.44 4 13.00
02/05 22:00 0.00 2.51 4 12.89
02/05 23:00 ---- ---- ---- ----